This is the latest recevied weather packets stored in our database for station/object K4PAD. If no packets are shown the sender has not sent any weather packets the latest 10 day(s).
| Time | Temp. | Humidity | Pressure | Rain* | Wind** | Luminosity | Snow |
|---|---|---|---|---|---|---|---|
| 1777907616 | 24.44° C | 39% | 1019.6 hPa | 0 mm | - | 857 W/m² | - |
| 1777907311 | 24.44° C | 37% | 1019.6 hPa | 0 mm | - | 835 W/m² | - |
| 1777907008 | 24.44° C | 39% | 1020 hPa | 0 mm | - | 830 W/m² | - |
| 1777906706 | 24.44° C | 39% | 1019.9 hPa | 0 mm | - | 816 W/m² | - |
| 1777906401 | 23.89° C | 39% | 1019.8 hPa | 0 mm | - | 750 W/m² | - |
| 1777906099 | 23.89° C | 41% | 1019.8 hPa | 0 mm | - | 787 W/m² | - |
| 1777905795 | 23.89° C | 41% | 1019.8 hPa | 0 mm | - | 770 W/m² | - |
| 1777905493 | 23.89° C | 40% | 1019.9 hPa | 0 mm | - | 755 W/m² | - |
| 1777905189 | 23.89° C | 39% | 1019.7 hPa | 0 mm | - | 738 W/m² | - |
| 1777904887 | 23.89° C | 41% | 1020 hPa | 0 mm | - | 722 W/m² | - |
| 1777904584 | 23.33° C | 42% | 1019.8 hPa | 0 mm | - | 702 W/m² | - |
| 1777904281 | 23.33° C | 41% | 1020 hPa | 0 mm | - | 685 W/m² | - |
| 1777903978 | 23.89° C | 41% | 1019.8 hPa | 0 mm | - | 663 W/m² | - |
| 1777903674 | 23.89° C | 44% | 1019.8 hPa | 0 mm | - | 646 W/m² | - |
| 1777903370 | 23.33° C | 43% | 1020.1 hPa | 0 mm | - | 625 W/m² | - |
| 1777903067 | 23.33° C | 43% | 1020 hPa | 0 mm | - | 607 W/m² | - |
| 1777902763 | 23.33° C | 47% | 1019.9 hPa | 0 mm | - | 593 W/m² | - |
| 1777902461 | 22.78° C | 46% | 1019.8 hPa | 0 mm | - | 564 W/m² | - |
| 1777902157 | 22.78° C | 47% | 1020 hPa | 0 mm | - | 545 W/m² | - |
| 1777901856 | 22.78° C | 51% | 1019.8 hPa | 0 mm | - | 525 W/m² | - |
| 1777901553 | 22.78° C | 53% | 1019.8 hPa | 0 mm | - | 501 W/m² | - |
| 1777901250 | 22.22° C | 53% | 1019.8 hPa | 0 mm | - | 482 W/m² | - |
| 1777900948 | 22.22° C | 54% | 1020 hPa | 0 mm | - | 461 W/m² | - |
| 1777900645 | 22.22° C | 64% | 1019.8 hPa | 0 mm | - | 439 W/m² | - |
| 1777900342 | 21.67° C | 63% | 1019.8 hPa | 0 mm | - | 379 W/m² | - |
* Rain latest hour (hover to see other rain measurements)
** Current wind speed in m/s (hover to see current wind gust speed)